Theta_e
288 290 289 289 289 290 291 290 291 290 291 291 293 294 295 295 297 299 296 298 299 300 301 303 303 304 304 304 305 305 306 307 308 309 309 309 310 309 308 307 307 307 306 303 304 303 303 302 302 301 301 299 298 298 297 297 297 297 297 296 296 294 293 293 292 293 290 285 285 287 286 288 289 294 299 301 302 301 305 308 307 305 305 306 305
288 290 290 288 288 289 289 288 288 289 290 290 292 293 293 294 296 294 296 298 298 300 301 301 301 302 303 303 304 304 304 306 306 308 308 308 308 308 308 307 307 307 306 304 303 303 303 302 302 302 301 300 299 298 297 297 297 296 296 296 296 295 294 294 292 291 293 288 288 285 288 287 291 288 298 299 302 302 303 305 304 303 306 306 305
288 289 288 288 288 288 289 290 290 290 290 290 290 292 292 292 292 295 296 296 296 299 300 300 300 301 301 301 302 303 304 304 304 306 307 307 307 306 307 306 307 307 306 305 304 303 302 302 302 302 301 300 300 299 297 297 297 297 296 296 296 296 294 294 293 292 292 290 285 287 287 287 292 290 291 296 300 302 302 302 302 301 301 302 303
287 288 288 287 287 288 288 288 289 289 290 289 289 289 290 291 292 294 296 294 296 296 298 299 299 300 300 300 301 302 302 302 303 304 305 306 306 306 305 306 306 306 306 306 305 303 303 302 302 302 300 300 300 299 297 297 296 296 296 295 296 296 295 293 294 295 291 292 286 290 286 289 288 285 291 293 299 298 299 299 298 300 299 299 300
285 286 286 286 286 286 287 288 288 288 288 288 287 288 288 289 290 293 293 294 295 294 294 295 298 299 300 300 300 300 301 301 302 302 303 304 304 305 304 305 305 305 305 305 302 303 303 303 303 301 300 299 299 298 297 296 296 296 296 296 295 296 295 294 293 292 292 291 290 286 284 287 284 284 289 295 292 292 293 296 297 297 297 294 293
285 286 286 285 286 286 286 287 287 287 287 288 288 288 288 288 289 289 291 294 292 294 296 295 297 298 298 299 299 300 299 300 300 301 301 301 302 303 303 303 303 303 304 303 303 303 303 302 302 301 300 299 299 297 296 296 296 296 295 295 295 294 294 292 291 291 291 292 292 289 286 289 287 285 285 290 295 293 294 291 291 292 293 295 294
285 285 285 285 285 285 286 286 287 287 287 287 287 287 287 287 287 289 289 290 291 292 292 295 295 297 297 297 297 298 298 298 299 298 299 299 300 301 302 302 302 302 302 303 303 303 303 302 301 301 300 300 299 298 297 296 296 295 296 296 295 294 293 293 291 290 290 291 289 289 289 285 287 288 286 287 291 293 296 294 294 291 290 295 297
285 285 285 285 285 285 286 286 287 287 287 286 287 288 289 288 288 288 287 290 290 290 292 293 293 293 295 296 296 295 296 296 296 297 297 298 299 300 300 300 301 301 300 300 300 300 300 300 300 300 300 300 300 300 298 297 296 296 296 296 294 294 293 292 289 290 290 288 290 290 287 287 285 283 283 286 290 291 290 293 297 296 293 291 292
284 285 285 285 285 286 286 286 287 287 287 287 287 287 288 288 289 289 288 287 288 289 290 291 290 291 291 292 293 293 295 296 296 296 296 296 297 297 298 298 297 298 298 297 296 297 298 298 299 299 299 296 296 296 297 297 298 296 295 295 294 294 294 292 292 290 290 290 289 288 287 286 286 287 286 287 290 294 292 289 290 290 290 291 290
284 284 284 285 286 286 287 287 287 287 286 286 286 287 287 287 288 288 288 287 288 287 287 288 289 290 291 290 290 290 292 293 293 295 296 297 296 297 296 296 296 296 296 295 294 294 295 296 297 295 294 293 293 294 295 295 295 298 298 296 294 294 293 292 291 291 291 290 291 290 288 289 287 287 288 287 287 284 286 287 289 284 284 286 286
284 284 284 285 285 286 286 287 287 287 287 287 287 287 287 287 287 287 287 286 287 287 288 289 288 288 288 288 289 290 291 292 292 295 296 297 296 295 296 295 295 295 295 295 295 294 293 294 294 294 293 292 293 293 294 294 294 294 295 295 295 296 294 292 292 292 291 292 292 290 290 290 288 287 289 287 284 287 288 288 290 285 287 288 289
283 283 283 284 284 285 285 286 286 286 287 287 287 287 287 287 287 287 287 286 286 287 287 288 288 288 288 289 289 290 290 290 294 295 295 296 295 295 294 294 295 295 294 294 294 293 293 293 292 293 293 295 295 294 293 292 293 293 294 294 294 294 296 296 295 292 292 292 290 291 291 291 290 287 288 286 286 286 285 286 287 288 286 287 285
282 282 282 283 283 283 284 285 285 286 286 286 287 287 287 287 287 286 286 286 286 286 286 286 286 286 288 288 287 288 288 290 291 292 292 294 295 294 293 294 294 294 294 294 294 294 292 291 291 292 294 291 292 293 293 292 291 292 292 292 292 293 295 296 296 297 295 294 293 292 291 291 289 288 289 289 288 289 284 285 285 285 288 289 289
281 281 281 282 282 282 283 283 284 285 285 286 286 286 286 286 287 286 286 286 286 286 285 286 286 286 287 287 287 287 288 290 291 291 292 292 293 294 293 294 293 294 294 294 294 293 293 293 292 290 289 289 290 292 292 291 292 291 291 291 293 292 291 293 293 292 294 296 295 294 293 292 293 292 291 290 289 289 287 287 286 285 286 289 287
280 281 280 281 281 281 282 282 283 284 284 285 286 286 286 286 286 287 286 286 285 285 285 286 286 286 287 287 287 287 288 290 291 291 292 293 293 293 291 293 293 292 293 292 292 293 292 293 291 292 290 289 290 290 290 290 289 289 289 289 291 292 292 293 293 294 293 293 295 295 294 293 294 293 291 291 293 293 292 291 290 290 285 281 282
277 278 279 279 280 280 280 281 282 282 283 284 284 285 285 285 285 286 286 286 286 286 286 286 286 286 286 287 287 286 286 288 289 290 291 292 292 290 291 291 291 291 291 289 290 290 290 290 291 289 289 288 288 291 291 289 288 287 288 288 288 288 290 291 293 294 295 295 295 295 294 293 295 293 291 291 292 287 287 285 286 285 287 285 287
274 275 277 278 279 279 279 280 280 281 282 282 283 283 284 284 285 286 286 286 286 286 285 285 285 285 285 285 286 285 285 286 288 289 290 290 289 289 288 288 288 288 287 287 288 288 288 288 289 289 288 287 289 292 292 290 288 288 288 288 288 288 289 290 291 292 293 293 294 294 295 295 295 295 294 294 292 290 288 287 286 286 286 285 284
272 273 274 277 278 278 278 279 279 280 280 281 281 282 283 284 284 285 285 285 285 285 285 284 284 284 284 284 284 284 284 284 287 288 289 289 288 287 288 288 287 286 286 286 287 287 287 287 288 288 287 287 290 292 293 290 289 288 288 287 287 287 289 289 288 288 290 291 292 292 293 293 294 294 295 294 293 291 291 290 288 287 288 287 288
270 271 272 276 277 278 278 278 278 279 279 279 280 281 282 282 284 284 285 285 284 284 284 284 283 283 283 283 283 283 283 284 286 287 288 289 287 287 287 287 287 286 287 287 287 286 286 286 286 287 288 288 291 292 292 290 289 288 288 287 287 288 289 288 288 288 287 288 288 288 288 289 290 290 290 292 292 290 292 293 289 289 288 287 286
269 271 272 275 276 277 277 277 278 278 278 278 279 280 281 281 282 283 284 284 284 283 283 283 283 282 282 282 282 282 282 283 284 286 287 288 288 286 286 286 286 286 286 287 287 287 286 286 286 288 290 290 291 292 292 291 289 288 289 289 289 289 289 287 287 287 287 287 288 287 289 288 287 286 287 288 289 290 291 291 290 290 289 288 287
269 270 272 274 275 276 277 276 276 277 277 277 279 279 279 280 281 281 282 283 283 283 283 283 283 282 282 282 282 281 282 282 282 284 285 287 288 287 286 286 285 286 286 286 287 287 287 288 288 288 290 291 291 291 292 292 290 289 289 289 289 289 289 287 287 286 287 286 286 286 286 286 286 285 286 286 287 288 289 289 288 290 291 289 287
268 269 271 272 273 274 276 276 276 276 277 277 277 277 278 279 280 280 281 281 281 281 281 282 282 282 282 282 282 281 282 282 281 282 284 285 286 287 285 285 286 286 286 286 286 286 287 287 288 288 289 290 290 291 291 292 292 289 289 291 291 291 290 288 287 287 287 286 286 285 286 286 286 286 285 285 285 287 287 288 287 288 290 291 291
267 269 270 270 271 273 275 275 275 275 276 276 276 276 276 277 278 279 279 280 280 280 280 280 280 280 281 281 281 281 281 281 282 281 283 284 285 285 286 286 287 286 286 285 286 286 287 288 288 287 287 288 289 290 291 291 290 290 291 291 291 290 289 289 288 288 288 287 287 287 287 286 287 286 286 286 286 286 287 287 287 286 282 274 274
267 268 268 269 270 272 274 274 274 275 275 275 275 275 275 276 277 277 277 278 278 278 278 279 279 279 278 279 279 280 281 281 281 282 281 283 284 284 284 285 285 285 286 286 286 286 286 287 287 287 287 287 288 289 290 289 288 290 291 291 290 288 288 288 288 288 288 288 288 288 288 288 287 286 286 287 287 286 283 280 277 276 276 273 272
266 266 267 268 269 271 272 273 273 274 274 274 273 274 273 274 274 276 276 276 276 276 276 277 277 277 277 277 277 277 279 280 281 281 281 281 283 283 283 283 284 284 284 284 284 284 285 286 285 285 285 286 287 288 288 287 288 288 289 288 287 288 288 288 288 288 288 288 288 288 288 288 289 289 288 285 281 280 279 277 276 275 274 275 274
265 265 266 267 268 270 270 271 271 272 273 273 273 273 273 273 273 274 274 274 275 275 275 276 276 276 276 276 276 276 277 277 278 279 280 280 281 282 282 282 282 282 283 283 283 283 284 284 284 284 284 284 284 284 284 284 284 285 286 286 287 287 287 288 287 288 288 288 288 288 289 288 289 288 286 285 284 283 282 280 279 277 279 281 281
264 265 265 267 268 269 269 269 270 271 272 272 272 272 273 273 272 273 272 272 273 274 274 275 275 275 275 275 276 276 276 277 278 278 279 279 279 280 280 281 282 282 282 282 282 281 282 282 282 282 283 283 282 282 282 282 282 283 284 285 286 287 287 287 287 288 288 288 288 288 289 289 286 285 285 285 285 284 283 282 282 282 281 283 284
263 264 265 266 267 268 268 269 269 269 270 270 270 271 271 272 272 272 272 272 272 272 273 274 274 274 274 275 275 275 276 276 277 277 278 279 279 280 280 280 280 280 280 281 282 281 281 282 282 282 282 282 282 282 281 280 280 280 280 281 282 283 285 286 287 287 287 287 288 288 287 286 286 287 286 285 286 285 284 284 284 283 282 283 283
262 263 264 265 266 266 267 267 267 268 268 268 269 270 270 270 271 272 273 274 273 273 273 273 274 274 274 274 273 273 274 274 276 278 278 279 279 279 279 280 280 280 281 283 281 281 281 281 281 281 281 280 280 281 280 280 280 279 278 278 279 281 283 285 285 286 287 287 287 287 287 286 287 286 286 285 285 284 283 284 285 284 282 284 285
261 262 263 263 265 265 265 265 266 266 266 266 267 268 270 271 271 271 271 274 274 275 275 273 273 274 273 273 274 273 273 274 277 278 277 278 279 280 280 281 282 281 282 283 281 279 280 279 280 279 279 278 278 278 277 277 277 277 278 277 276 278 278 280 283 284 285 286 287 287 286 286 286 285 285 285 285 284 283 284 284 284 282 282 284
260 261 261 262 264 264 264 264 265 265 265 265 265 266 266 267 269 270 271 271 272 274 274 274 274 274 273 272 273 275 275 276 276 276 276 277 278 279 280 280 282 282 283 281 279 278 277 277 278 278 277 277 276 275 275 274 274 274 274 275 275 274 275 277 277 277 280 283 285 286 286 285 285 285 284 284 284 283 282 282 284 284 283 284 284
258 259 260 261 263 263 263 263 263 263 263 264 264 264 264 264 265 268 269 269 271 272 273 272 272 273 273 273 271 271 273 274 274 274 274 274 275 277 278 280 281 281 282 282 278 276 275 274 274 274 274 274 275 273 273 273 273 272 273 273 274 272 272 272 273 274 276 279 282 283 284 285 285 284 284 284 283 282 282 281 282 282 283 284 284
258 258 260 261 261 262 262 262 262 262 262 262 262 263 263 263 262 263 266 268 269 270 270 270 269 270 271 271 271 271 271 272 272 272 272 272 274 275 277 278 280 279 279 276 274 274 273 273 273 273 272 272 272 271 272 271 271 270 270 270 270 270 270 270 272 273 275 276 278 280 282 283 283 283 282 282 281 281 281 280 281 282 282 282 278
258 258 259 260 260 261 261 262 261 262 262 262 262 262 262 263 262 263 263 264 265 267 268 268 268 268 268 270 269 269 270 270 270 271 270 271 272 275 276 276 278 277 275 271 271 271 272 271 272 271 271 270 270 270 270 270 269 269 269 269 268 268 269 270 271 272 273 274 276 277 278 280 281 282 282 281 281 281 280 280 281 280 280 280 277
257 258 260 260 259 260 261 261 261 261 261 260 261 261 261 262 262 262 262 262 262 262 263 263 265 266 266 267 267 267 267 268 269 270 269 270 271 273 274 270 269 269 269 269 269 269 268 269 269 269 268 268 268 268 267 268 268 268 268 268 268 268 268 268 268 269 270 272 273 274 274 276 278 279 279 279 279 279 279 279 279 279 279 276 274
257 257 258 258 259 259 259 260 260 260 259 260 260 260 260 260 260 261 262 262 262 262 262 261 260 263 265 265 265 265 266 267 268 267 266 267 269 270 264 264 265 266 266 267 266 266 266 266 266 266 267 266 267 266 267 266 266 266 266 266 266 267 266 267 267 267 268 269 269 270 271 273 274 275 277 277 278 278 278 277 277 276 276 274 272
255 255 256 257 257 258 259 259 259 259 260 260 259 258 258 259 260 261 261 261 261 261 260 258 259 258 261 261 263 263 264 265 265 264 264 264 265 262 261 261 261 262 262 262 263 263 263 264 264 264 264 264 264 265 265 265 265 264 265 265 265 265 265 265 266 266 267 267 268 268 269 269 271 272 274 275 274 274 274 274 273 272 272 270 269
253 253 254 256 257 258 258 257 257 259 258 258 257 257 257 258 259 259 259 259 261 260 258 256 258 257 257 258 262 261 262 263 263 262 261 260 259 258 258 259 260 259 260 260 261 261 261 262 262 262 262 262 262 263 263 263 264 264 264 264 264 264 265 264 265 265 266 266 266 266 267 267 268 268 269 271 271 271 270 270 271 270 268 268 269
252 254 256 258 258 258 257 257 256 256 256 256 256 256 257 257 257 257 257 257 257 257 256 255 255 257 258 260 260 261 259 258 257 256 256 256 256 256 256 256 256 257 257 256 257 257 257 258 259 260 260 261 261 261 262 262 263 262 263 263 263 263 263 263 263 264 264 264 265 265 265 266 266 267 268 268 268 268 268 268 268 268 268 268 268
252 252 253 256 255 256 256 256 256 255 254 255 255 256 255 255 255 255 255 255 256 256 254 254 254 256 258 260 260 259 256 255 253 254 254 255 255 255 255 255 255 254 254 254 254 253 254 254 255 256 256 257 258 258 259 259 261 262 262 262 262 262 262 262 262 263 262 264 263 264 264 265 265 266 266 267 267 267 267 267 266 267 266 264 262
249 249 253 254 256 255 255 254 253 253 253 253 254 254 253 255 255 254 253 253 253 253 252 251 251 252 255 260 262 260 252 251 251 251 253 253 254 253 254 254 254 253 254 253 253 253 252 252 253 254 254 255 255 256 257 257 258 259 259 261 261 261 261 261 262 262 263 263 263 263 264 264 264 265 264 265 265 265 265 265 263 262 262 261 261
248 249 251 251 252 252 252 252 252 254 252 252 253 253 254 254 253 253 253 254 253 253 251 250 249 250 256 260 260 260 251 250 252 251 252 251 251 251 252 250 251 252 253 252 251 253 253 253 253 253 253 254 254 255 256 256 256 256 256 256 258 259 260 260 260 261 261 261 261 262 262 262 263 263 263 264 264 264 264 263 262 261 261 261 260
250 249 250 250 251 250 251 252 251 250 251 250 250 253 254 253 252 252 252 252 252 252 251 250 249 250 252 258 258 258 250 249 254 252 251 251 250 251 250 250 250 250 249 249 250 251 251 250 251 251 252 253 253 254 254 254 255 255 256 257 258 258 258 259 259 259 260 260 260 260 261 261 262 262 263 263 263 263 262 262 261 261 261 260 260
250 250 251 251 251 251 251 250 249 250 249 251 252 252 252 251 250 250 249 249 250 251 250 249 249 249 249 250 252 251 249 250 249 249 251 251 250 249 247 246 247 248 248 249 249 249 250 250 250 250 251 252 253 252 254 254 255 255 255 256 256 257 257 258 258 259 259 259 260 260 260 260 260 261 261 261 262 261 261 261 260 260 260 260 260
250 251 250 250 250 249 249 249 249 249 251 250 249 248 250 249 248 248 249 249 250 250 248 249 250 250 250 247 247 249 247 247 251 251 249 248 248 247 246 246 246 247 247 249 248 248 249 249 249 250 250 251 251 252 253 254 254 255 256 256 255 255 255 255 256 257 258 258 259 259 259 259 259 260 260 260 260 260 260 260 260 259 259 259 259
250 250 249 250 250 250 250 249 249 248 249 248 247 247 246 245 245 247 249 249 249 249 248 248 247 248 249 247 247 250 247 247 247 248 249 248 248 247 246 245 246 246 246 246 248 248 249 249 248 249 249 249 250 251 252 253 254 254 255 255 255 255 255 256 256 256 256 257 257 257 257 257 257 257 258 259 259 259 259 259 258 258 258 258 258
250 250 251 250 250 250 250 250 249 248 247 247 248 248 248 247 245 247 249 249 249 250 248 247 246 247 246 246 247 246 247 249 247 248 247 247 246 245 245 245 245 245 246 246 246 247 247 249 248 248 248 248 248 250 250 251 251 252 253 253 254 254 254 254 255 255 255 256 256 256 256 256 257 257 257 257 257 258 258 258 257 257 257 257 257
249 250 251 251 250 249 250 248 249 252 250 249 249 249 249 248 247 248 246 246 247 248 247 246 245 244 247 246 247 247 247 246 247 248 247 246 244 244 245 246 246 245 244 245 245 246 246 246 246 246 247 248 248 249 249 249 250 251 251 252 252 252 254 254 254 254 254 255 255 255 256 256 256 256 256 256 256 257 256 256 256 256 256 256 256
247 248 249 250 250 251 250 249 249 248 249 249 248 248 248 248 248 247 246 246 246 247 246 246 246 245 245 246 247 246 246 248 245 244 244 243 244 243 244 246 248 246 245 245 244 244 244 244 246 246 245 246 246 247 248 248 250 250 251 252 255 256 254 254 253 253 254 255 255 255 255 255 255 255 255 255 255 255 255 255 255 255 255 255 255
248 248 249 250 250 251 250 249 249 249 248 247 247 247 247 247 247 247 247 246 245 246 245 245 246 247 246 246 247 246 246 246 246 246 244 243 243 243 244 244 244 244 243 244 245 244 243 243 243 245 245 245 246 246 247 247 248 250 252 254 255 255 254 254 253 253 253 253 254 254 254 254 254 254 254 254 254 254 254 254 254 254 254 254 254
249 249 249 249 250 249 249 248 249 249 248 247 247 247 248 247 249 247 247 246 247 247 247 246 246 245 245 246 247 246 246 246 246 245 244 244 244 243 245 244 245 244 243 243 243 243 243 242 243 244 244 246 245 246 245 246 248 252 255 255 254 254 253 253 252 253 253 253 253 253 253 253 253 253 253 253 253 253 252 252 253 253 253 253 253
Wind_Speed
6 7 6 5 3 3 3 3 4 3 3 4 4 5 5 4 5 6 4 5 5 6 6 7 7 7 7 7 8 8 8 7 7 8 8 8 8 9 8 10 10 9 8 8 8 8 9 9 9 9 7 8 7 7 7 7 7 7 7 7 7 6 7 7 9 9 4 0 2 1 0 3 2 4 5 5 5 4 5 6 5 4 3 3 2
7 7 6 5 4 4 3 3 3 2 3 4 4 4 4 5 5 3 5 6 6 7 7 6 6 6 6 6 6 7 7 7 7 7 8 8 8 7 8 9 9 9 8 8 8 7 8 9 9 8 8 9 8 8 8 7 7 7 7 7 8 7 7 8 9 7 9 1 2 0 0 2 3 3 8 8 7 5 6 6 5 5 4 5 3
6 5 4 4 6 5 4 3 2 1 2 3 4 4 5 5 4 5 6 5 5 6 7 7 7 6 6 6 6 6 7 7 7 8 8 9 8 7 7 8 9 9 8 8 8 7 8 9 9 7 6 8 8 8 7 8 7 8 9 7 8 8 7 8 7 8 8 7 3 3 4 3 5 3 4 3 4 5 5 6 5 3 3 2 3
7 6 5 6 6 6 7 7 6 3 1 2 3 4 3 4 4 5 6 4 6 5 5 7 7 8 8 7 7 7 6 6 6 7 8 8 8 8 8 8 8 8 8 8 8 8 9 8 8 7 7 9 8 7 6 7 7 8 7 7 8 8 7 7 8 7 6 8 3 6 3 5 3 0 3 2 5 4 4 3 2 4 3 1 1
7 6 6 6 6 7 7 7 7 7 7 5 3 2 3 3 3 5 4 5 6 5 4 4 6 7 8 8 8 7 7 7 7 7 7 7 8 8 8 8 8 8 8 8 8 9 9 10 8 8 8 9 8 7 6 7 7 7 8 7 7 7 6 7 8 6 6 7 4 1 0 1 1 0 3 6 3 3 1 3 4 4 4 0 2
8 7 8 7 7 8 7 7 8 8 8 7 7 5 3 2 3 4 3 4 4 5 7 6 6 7 7 7 8 8 7 7 7 8 7 7 6 6 7 7 7 7 7 7 7 7 8 9 8 8 9 10 8 7 7 8 7 8 8 7 7 6 7 7 6 6 6 7 6 4 1 4 1 0 3 4 6 4 3 1 1 1 3 3 1
7 7 7 7 7 7 8 8 8 7 7 7 6 6 6 3 1 3 2 2 4 4 4 6 6 6 6 5 6 7 7 7 7 6 6 6 7 7 6 6 6 7 6 7 7 7 8 8 8 8 9 9 9 8 8 8 8 9 9 9 8 7 8 7 7 7 7 7 6 5 4 2 2 4 0 2 2 3 7 4 3 2 1 4 6
7 7 7 7 8 8 8 7 7 7 6 6 6 6 6 6 4 2 1 2 3 3 4 5 4 4 5 6 5 5 6 6 6 6 6 6 6 6 6 6 6 6 6 6 6 6 6 7 7 7 9 8 9 8 8 8 7 8 7 7 7 8 8 7 6 7 7 6 7 7 4 6 1 2 2 3 4 1 3 6 10 8 7 4 3
6 6 7 7 7 7 7 7 7 7 7 7 7 7 7 6 6 5 4 3 1 1 1 1 3 3 2 4 4 4 5 6 6 6 6 6 6 7 7 7 7 6 6 5 5 5 5 5 5 6 8 10 13 11 10 10 8 8 7 7 7 8 7 7 7 7 7 6 7 3 4 4 4 6 5 5 8 10 8 6 5 2 4 4 4
6 6 7 7 7 7 6 6 7 7 7 8 8 7 6 6 6 6 6 5 4 4 0 1 3 3 4 2 2 3 3 3 6 10 9 7 7 6 6 6 6 6 6 5 4 4 5 5 5 10 11 12 12 13 13 13 12 10 9 9 9 8 8 8 8 7 7 8 8 7 7 8 7 7 7 6 4 3 5 5 6 3 4 2 2
6 7 7 7 6 6 5 6 5 7 6 6 6 7 7 6 6 6 6 6 6 5 3 3 2 1 2 3 2 1 0 0 3 7 8 9 6 5 6 5 5 5 5 6 6 6 5 5 5 7 8 9 9 12 13 13 14 14 12 13 12 12 9 9 8 8 9 8 7 7 8 9 8 7 8 6 4 6 7 7 8 6 6 7 7
6 7 7 7 7 7 7 6 6 6 6 6 6 6 5 6 7 7 7 8 7 5 7 6 5 5 4 4 5 5 5 8 7 3 4 7 6 4 4 4 5 5 5 6 5 5 5 5 4 4 5 6 6 6 9 11 13 13 13 12 14 15 13 12 10 8 8 7 7 9 8 9 7 7 6 5 6 5 4 6 6 9 7 7 5
6 7 7 7 7 7 7 7 6 6 6 5 5 5 5 6 7 8 8 6 5 7 6 7 7 5 6 7 7 6 6 9 9 9 7 4 4 5 3 4 4 4 4 5 5 5 5 5 5 5 6 8 7 5 5 6 9 11 11 10 10 12 13 14 13 11 10 9 9 9 10 8 8 8 9 10 7 9 5 6 5 5 8 8 8
6 7 8 8 7 7 7 7 7 6 6 5 5 6 6 6 6 5 5 6 8 8 8 8 7 7 7 7 7 6 6 8 11 8 6 5 3 3 4 4 4 4 4 5 4 5 5 5 5 5 4 4 5 6 5 5 5 4 5 5 6 8 10 12 12 11 8 9 9 10 8 7 9 9 11 9 10 9 9 9 6 6 8 11 3
7 7 8 8 8 8 8 7 8 7 7 6 5 6 6 6 6 6 6 7 7 7 7 7 7 6 6 6 7 7 7 11 10 10 9 6 3 2 2 1 2 3 3 3 4 5 5 5 4 5 4 5 6 8 6 6 4 4 4 4 6 6 6 6 7 7 6 5 6 7 6 8 8 8 8 9 11 10 12 10 13 11 4 3 5
8 7 7 8 8 8 8 7 7 8 7 6 6 7 7 6 6 5 5 5 5 5 6 6 6 6 6 5 6 7 8 14 12 12 12 11 8 4 2 2 2 1 0 1 1 0 2 4 5 4 4 4 5 8 7 4 4 4 5 5 4 4 5 8 9 8 7 7 7 6 5 7 10 9 9 11 9 4 5 6 7 5 6 5 7
8 8 7 8 8 8 8 8 7 7 8 7 6 7 7 7 6 5 5 5 5 5 5 5 5 5 6 6 6 6 7 11 13 13 12 12 7 5 4 4 3 1 2 1 1 1 1 1 2 2 2 3 3 6 8 8 5 5 5 4 4 3 6 6 7 8 8 7 7 7 5 7 9 9 10 13 9 8 7 6 5 6 6 6 5
7 7 8 8 8 8 8 8 7 7 7 8 8 7 6 6 6 5 5 5 5 5 4 5 6 6 6 7 5 6 6 8 12 13 14 14 8 6 5 5 4 3 2 2 1 1 0 2 2 1 2 3 4 6 8 8 6 6 5 4 4 4 7 5 2 3 4 6 8 9 8 8 10 11 12 13 13 10 9 10 7 8 8 8 8
7 7 8 8 7 8 7 8 7 7 6 6 7 8 7 6 6 5 6 5 5 5 5 5 6 6 6 6 8 8 7 8 14 14 15 14 10 6 6 4 4 3 4 4 4 3 2 2 3 4 4 5 6 6 9 9 6 6 6 5 5 6 7 2 2 4 4 4 4 4 4 6 6 6 8 15 16 14 11 10 8 9 9 8 6
7 7 7 7 6 7 7 8 8 7 7 6 6 7 7 6 6 6 6 5 5 5 5 5 6 5 6 7 7 7 8 7 10 15 14 14 12 6 5 5 5 3 2 2 2 2 1 2 3 4 6 6 7 7 8 11 7 5 5 6 7 8 5 4 5 5 4 5 5 4 5 4 3 4 4 6 8 10 11 9 9 10 9 9 8
6 7 7 6 6 6 6 7 8 7 6 5 5 6 6 7 7 7 6 6 6 7 7 6 5 6 6 6 7 7 7 8 8 14 14 14 14 10 4 5 4 4 3 2 1 1 2 2 2 4 5 6 6 7 7 10 10 7 7 7 9 5 5 5 5 6 4 4 4 3 4 2 2 3 3 4 5 7 7 7 7 9 10 9 8
5 5 6 6 6 6 5 7 6 6 6 6 5 6 5 6 6 6 6 7 7 8 8 7 6 6 6 6 7 7 7 9 7 10 15 13 13 13 6 4 5 4 2 1 1 2 2 2 3 5 6 6 6 7 7 6 9 6 7 11 11 9 5 4 3 4 4 3 3 3 3 4 3 4 4 4 4 5 6 7 6 7 8 9 11
6 5 5 6 6 6 5 7 6 6 7 7 6 6 6 6 6 6 6 6 7 7 7 7 7 7 7 7 7 7 7 7 11 9 13 15 14 14 14 9 11 5 3 3 3 3 2 3 4 5 6 6 4 4 5 6 5 6 9 9 9 9 6 3 4 4 4 4 4 4 4 4 4 4 5 5 6 5 6 6 6 5 3 1 2
6 5 5 5 5 6 6 6 6 6 6 6 6 6 6 5 4 5 6 5 4 5 5 4 5 5 6 6 7 7 6 6 7 10 10 14 14 15 15 15 15 8 5 5 5 5 5 5 5 6 5 5 4 2 2 3 4 5 7 8 8 6 4 4 4 5 5 4 4 4 4 4 4 4 5 7 7 6 4 2 2 2 3 2 3
6 5 5 5 5 5 6 6 6 6 7 7 7 6 6 6 5 6 6 5 6 5 4 5 4 4 4 5 4 5 6 6 5 7 10 10 12 13 14 14 14 14 8 6 6 6 7 9 9 8 8 7 5 3 2 3 3 1 3 4 3 2 3 3 4 5 5 6 6 5 5 5 7 7 5 3 4 6 5 4 4 5 5 5 4
6 6 5 5 6 5 6 6 7 6 7 7 7 6 6 6 7 6 6 6 5 5 5 4 4 4 4 4 4 3 4 4 5 6 7 8 8 10 9 8 8 8 6 5 9 11 10 9 9 7 6 6 5 5 5 5 5 5 5 3 1 2 2 3 3 4 5 5 6 6 6 4 4 3 3 5 5 6 6 5 5 4 5 6 5
6 5 6 5 5 5 5 6 6 6 6 6 6 6 6 5 5 6 6 6 6 6 6 5 5 5 5 5 4 4 3 4 4 4 4 3 4 4 5 5 5 5 5 5 5 6 7 6 4 4 2 3 4 3 4 5 5 5 5 4 3 1 1 2 3 4 4 4 4 4 4 4 3 5 4 6 6 6 7 7 7 6 6 5 7
7 6 6 5 4 5 5 7 6 4 5 5 5 5 5 6 5 5 5 5 4 4 6 6 6 6 6 6 5 5 5 6 6 8 8 8 7 5 5 5 5 4 3 3 3 4 4 4 4 2 3 3 4 3 4 4 3 4 4 4 4 3 3 4 3 2 2 2 3 2 2 3 4 5 5 5 5 5 6 7 8 7 7 6 5
7 7 6 5 5 5 5 5 5 5 5 5 4 5 5 6 6 5 4 4 5 5 5 5 6 6 5 6 6 6 6 7 7 11 10 13 12 10 8 7 6 6 7 8 3 2 3 5 6 6 6 6 6 5 5 5 4 4 4 5 4 4 3 2 2 2 3 2 3 3 4 4 4 4 5 5 6 6 6 6 5 6 6 7 9
6 6 5 5 5 5 5 5 5 5 5 5 5 5 7 10 8 6 6 9 11 11 9 6 6 6 5 4 5 5 5 6 13 15 14 14 15 15 14 14 13 8 9 10 2 1 2 3 2 3 4 4 5 5 5 5 6 6 5 5 5 4 4 4 3 3 3 3 3 3 4 4 5 5 5 6 5 5 6 8 7 6 8 8 8
5 5 5 5 7 6 5 5 5 5 5 5 5 5 5 5 9 12 12 11 12 10 10 12 13 12 8 4 6 10 12 13 14 14 14 14 15 15 14 15 14 12 11 6 1 0 0 1 1 2 2 2 2 2 3 3 4 4 5 5 4 4 4 4 4 5 4 4 3 3 4 5 5 5 6 6 6 6 5 6 5 6 7 7 8
4 5 5 5 6 6 5 5 5 5 5 5 5 5 6 6 4 6 10 12 11 11 11 13 14 13 12 10 7 5 9 13 15 14 14 15 15 15 15 15 14 14 13 10 3 4 4 4 4 3 3 2 1 2 1 1 1 1 2 3 3 3 3 3 4 3 4 4 4 3 3 4 5 5 6 6 4 5 5 6 6 7 7 7 7
4 5 4 5 4 5 4 4 5 5 5 6 6 6 6 6 7 7 6 8 10 10 11 12 13 13 12 11 12 11 10 11 13 14 14 14 15 14 15 14 12 13 12 8 5 5 5 5 4 4 4 4 4 3 2 0 1 1 1 1 2 2 2 3 4 3 3 3 4 4 4 4 4 3 4 4 5 6 6 6 6 6 6 6 4
5 5 5 5 4 3 4 4 4 4 4 4 3 4 4 5 5 6 7 8 7 8 9 11 13 13 12 11 13 13 12 12 11 11 11 12 13 13 11 7 7 12 9 4 4 4 3 3 4 4 4 4 4 4 4 4 3 2 1 1 1 1 2 3 2 2 3 3 3 4 4 4 2 4 4 4 5 5 5 5 6 6 6 6 6
4 5 6 6 4 4 3 4 3 4 4 4 3 3 3 3 3 4 4 5 6 6 6 7 9 11 9 8 11 12 12 11 10 9 10 10 11 11 7 5 5 4 5 5 4 3 3 3 3 3 3 3 4 3 3 4 3 3 3 3 2 2 2 1 1 1 2 2 2 2 2 3 3 3 4 5 5 5 6 6 6 7 7 6 7
4 3 4 4 4 4 4 4 4 3 3 2 2 2 2 1 2 2 2 3 3 5 5 5 4 6 6 6 9 10 10 9 8 8 9 10 10 8 4 4 4 4 4 4 3 3 2 2 3 3 3 3 3 3 3 2 2 2 2 2 3 3 3 3 2 1 1 0 1 2 3 2 2 2 3 3 5 6 5 6 6 5 5 6 6
4 4 3 3 3 3 3 3 3 4 4 3 3 2 2 2 1 0 0 1 1 1 1 3 4 2 2 2 7 9 8 7 5 5 8 8 9 7 4 3 2 2 4 3 3 3 3 3 2 2 2 2 2 2 2 2 2 1 2 1 2 2 3 3 3 2 2 1 1 1 1 1 2 2 2 4 3 2 3 3 4 4 4 6 7
4 4 4 4 4 4 3 3 3 4 2 2 2 1 2 1 1 2 2 2 3 3 2 2 1 1 3 4 4 3 4 3 1 4 7 8 8 6 5 4 4 4 3 3 3 3 3 3 4 3 3 3 2 3 2 2 2 1 2 1 1 1 2 2 2 3 3 1 1 1 1 1 1 1 1 1 2 2 2 2 4 5 4 5 6
4 6 7 8 5 4 3 4 5 4 4 3 3 3 4 3 3 3 3 2 3 3 3 2 3 3 4 5 6 5 4 5 6 5 4 4 4 5 5 5 5 5 5 4 4 3 3 3 4 3 3 3 4 4 3 3 3 2 2 1 1 1 2 2 2 2 2 2 2 2 1 1 1 2 2 3 3 3 4 4 3 4 5 5 3
4 5 5 6 5 4 4 4 3 3 4 4 5 4 4 3 3 3 3 4 4 4 4 4 4 4 5 5 6 6 7 6 6 6 6 7 7 7 7 6 6 6 6 5 5 5 3 3 3 3 3 3 4 3 3 2 3 3 2 2 1 1 2 2 2 2 2 2 2 3 2 2 2 2 3 3 4 4 5 5 4 4 5 6 6
5 3 4 4 5 4 4 4 4 3 3 3 3 4 4 3 3 2 1 2 2 2 2 3 4 5 5 6 9 7 4 4 4 5 6 5 5 5 5 5 5 5 5 4 4 3 2 3 3 3 4 4 3 3 3 3 4 3 2 3 3 3 3 3 2 2 2 2 2 2 3 3 2 2 3 3 3 5 5 6 7 7 7 7 7
5 5 5 5 4 3 4 7 6 4 4 4 3 3 3 3 2 2 2 2 4 4 3 4 4 4 7 9 6 5 3 1 1 3 2 1 2 2 2 3 3 2 3 4 3 2 2 2 3 3 3 3 3 3 3 4 3 3 3 3 4 4 4 4 4 3 3 3 3 3 3 3 3 4 4 3 4 4 6 6 6 7 8 8 7
5 5 5 5 4 3 4 5 3 4 4 3 4 3 4 3 3 3 2 3 1 2 2 4 5 4 5 7 5 4 2 1 2 0 0 0 0 0 1 1 1 2 1 1 1 0 1 1 2 2 2 3 3 3 3 3 3 3 4 3 4 4 4 4 4 4 3 4 4 6 6 5 4 4 4 4 4 5 5 6 6 6 6 7 8
4 5 5 4 5 4 4 3 3 4 4 5 3 4 3 3 2 2 2 2 2 2 2 3 3 3 3 4 3 2 0 0 0 0 0 1 0 0 0 1 1 1 2 2 2 1 2 2 2 3 3 4 4 3 4 4 4 4 3 4 4 5 5 5 4 4 3 4 4 5 5 6 5 5 5 4 4 6 5 6 6 6 6 7 7
5 5 5 5 5 4 6 3 3 4 5 4 3 4 4 1 3 3 2 3 4 3 3 2 1 1 3 2 1 0 1 0 1 1 0 0 0 0 1 1 2 2 3 4 3 3 4 3 3 3 4 4 5 5 5 4 4 4 4 5 5 5 5 4 4 4 4 4 4 5 5 6 6 6 6 6 5 6 6 6 6 6 7 6 7
5 5 6 6 6 6 5 5 6 3 4 5 5 5 5 3 4 4 4 4 4 3 3 3 3 2 3 2 1 2 1 1 0 1 1 0 0 0 0 0 1 1 2 2 3 4 4 4 4 5 5 5 5 6 5 5 5 5 5 5 5 5 4 4 4 5 5 5 4 4 5 6 6 5 6 6 6 7 7 7 7 7 7 7 7
5 5 6 6 6 7 6 6 2 4 4 5 4 5 6 5 4 4 5 5 3 4 3 3 2 2 2 2 2 2 2 1 1 1 1 1 1 1 0 0 1 2 3 3 3 4 4 5 4 4 4 4 4 5 5 5 5 5 5 5 5 5 4 4 4 4 4 4 4 5 5 5 5 5 6 6 6 7 8 7 7 8 7 7 7
5 5 5 5 5 5 6 4 5 6 6 7 5 6 6 5 4 5 5 4 3 4 3 3 3 4 3 2 2 2 1 1 1 2 1 1 1 1 1 1 1 2 3 4 4 4 4 3 4 3 3 3 3 3 3 3 3 4 4 4 4 4 5 5 4 4 4 4 4 4 5 6 5 5 5 6 6 6 8 7 7 6 7 7 6
3 4 5 5 5 6 7 6 7 7 7 7 5 6 7 5 6 6 5 4 4 4 4 5 5 3 3 4 3 3 2 3 2 3 2 2 1 1 1 0 0 0 1 1 2 2 2 2 2 2 2 2 2 2 3 3 3 3 3 3 5 8 8 7 5 4 5 5 5 5 5 5 6 6 6 6 6 6 6 6 7 7 7 7 7
3 3 4 5 5 6 6 6 7 7 7 6 6 7 6 6 6 7 6 5 4 5 5 4 5 5 4 3 5 4 2 3 4 4 4 4 4 2 2 2 1 1 1 1 1 1 0 1 1 1 1 1 1 1 1 2 2 3 3 4 8 8 7 8 7 6 5 4 5 4 5 6 6 5 5 5 6 6 7 6 6 5 6 7 7
5 4 5 5 5 5 6 6 6 6 7 7 7 7 7 7 8 7 5 5 7 7 6 5 6 4 4 6 6 4 4 5 5 4 4 4 4 2 2 2 2 2 2 1 2 2 2 1 1 1 1 1 1 1 1 1 1 1 6 8 8 7 7 6 5 6 7 5 4 4 5 6 6 6 5 5 5 6 5 6 6 6 5 6 6
Wind_Direction
343 332 323 310 287 258 255 246 247 226 222 222 225 222 217 217 213 213 184 201 195 192 191 192 190 190 188 190 190 191 192 192 190 187 188 194 193 191 182 186 193 199 189 190 195 191 199 203 203 204 190 193 200 194 195 195 191 199 199 198 209 199 191 202 220 249 287 206 216 216 224 136 186 205 181 187 199 221 211 197 223 211 223 196 147
347 332 328 320 317 304 289 283 266 247 217 216 223 232 234 218 213 189 197 211 186 193 192 188 184 181 182 188 190 191 193 192 187 186 190 193 193 188 186 187 196 197 187 192 192 192 196 203 209 202 190 201 199 197 196 189 190 195 199 196 208 203 198 194 221 225 245 284 278 297 231 193 201 195 186 181 197 185 194 182 215 225 220 201 173
335 338 340 359 358 344 345 339 324 264 245 248 230 233 232 229 203 195 209 210 204 196 192 183 179 176 180 185 187 191 193 192 187 189 193 193 190 188 188 188 194 195 193 197 190 189 197 206 210 196 183 203 209 204 190 193 190 195 202 195 205 209 197 204 197 221 228 247 207 186 206 194 206 194 206 200 178 184 189 186 203 226 266 215 181
348 2 9 21 22 21 15 355 349 351 287 251 250 263 267 258 227 207 206 185 198 216 199 184 173 174 178 181 184 190 191 191 189 194 194 192 193 190 188 193 198 200 198 197 189 188 200 205 210 193 186 203 211 204 191 191 189 200 202 200 205 210 201 199 213 213 201 222 240 197 211 179 233 13 141 144 160 181 208 156 163 192 200 192 135
359 4 10 18 21 24 18 10 4 354 347 326 288 257 238 247 255 239 205 195 196 185 208 195 179 174 178 181 182 185 190 187 188 194 196 194 193 190 191 193 198 201 201 199 194 193 200 205 204 189 188 204 211 205 188 190 196 195 204 199 201 208 203 199 211 209 206 212 233 238 141 118 94 177 184 148 113 127 79 161 184 188 172 90 90
3 8 14 18 17 18 13 11 6 355 346 343 335 317 289 237 230 250 234 221 197 192 179 187 185 188 185 180 179 184 183 186 189 190 192 190 191 190 188 191 196 199 201 201 197 196 199 204 199 190 192 201 208 202 191 197 191 198 204 200 200 199 206 212 202 203 212 226 212 225 202 171 193 262 225 174 152 147 136 67 59 76 166 177 167
4 10 13 18 13 13 11 10 0 353 349 342 340 343 344 332 281 255 240 218 197 197 202 187 194 182 186 175 179 179 179 181 185 187 187 187 189 189 189 190 193 196 201 201 201 198 200 200 198 194 197 201 204 199 197 197 194 202 201 199 195 191 203 207 195 198 206 219 231 225 201 246 158 190 82 152 135 157 166 142 211 251 262 196 203
10 17 18 20 17 5 1 354 355 353 346 351 350 353 353 353 350 326 312 215 205 208 201 202 199 185 174 179 182 170 168 172 178 181 181 183 185 192 190 190 192 196 198 203 203 203 202 198 197 196 200 201 202 204 191 200 194 204 203 194 188 190 200 197 191 197 202 211 214 215 201 171 118 38 70 104 121 99 190 172 199 202 219 226 234
15 22 25 24 17 9 0 1 355 358 3 6 6 2 3 360 2 12 19 3 343 266 194 161 139 162 161 170 162 162 167 180 180 179 179 184 184 190 191 191 191 193 197 201 204 205 204 201 201 201 203 206 204 203 199 196 187 200 201 186 188 191 197 193 194 191 202 198 223 209 177 190 187 149 141 169 183 193 186 183 200 180 168 192 256
18 24 30 23 13 8 7 9 13 14 19 19 12 3 0 3 11 20 16 5 9 355 1 126 145 156 161 148 137 146 174 182 191 186 184 180 185 189 186 188 187 189 192 200 209 211 210 203 207 207 207 210 210 210 209 205 202 200 192 184 186 190 193 190 191 193 189 197 209 189 194 212 190 188 184 209 187 103 107 152 187 166 110 178 307
20 27 29 19 9 354 353 6 5 21 19 19 14 14 12 10 20 21 20 15 12 3 33 47 39 77 118 131 123 131 90 297 219 201 201 193 181 182 183 189 187 189 191 193 204 207 212 209 206 209 212 218 219 218 214 212 212 213 204 190 189 184 187 191 199 187 190 202 197 190 204 208 202 189 202 186 171 179 173 179 169 139 165 159 213
20 24 22 13 9 1 357 356 6 11 12 14 16 14 12 14 25 28 25 22 11 23 41 36 34 25 56 71 65 55 51 18 28 14 219 211 196 184 185 185 187 192 194 196 203 196 201 202 207 196 197 205 208 214 223 224 221 220 219 205 201 202 194 186 188 191 195 197 195 207 195 209 189 180 195 150 178 175 179 161 168 177 175 195 197
25 25 18 16 9 359 352 354 360 7 11 11 11 19 21 26 24 26 31 21 33 44 32 39 33 37 57 68 63 53 47 32 36 31 23 8 217 196 184 189 183 198 198 201 200 197 193 193 199 194 199 200 199 200 200 218 228 231 233 232 225 216 216 214 203 191 186 198 199 205 202 188 179 202 194 186 166 179 158 163 177 179 195 200 218
34 28 19 13 4 1 356 351 355 355 359 6 17 29 29 28 28 32 37 40 48 51 48 42 21 34 62 77 75 61 53 38 46 42 39 31 23 192 198 189 193 192 197 197 197 197 194 191 196 205 204 182 186 191 196 200 202 209 226 224 227 237 236 235 234 229 204 199 197 211 208 179 197 197 199 168 158 182 169 196 179 180 193 212 216
32 30 20 9 3 1 356 353 355 348 350 0 20 34 37 26 29 30 37 40 42 35 40 42 42 51 53 60 70 59 39 32 36 35 37 43 57 129 174 187 203 213 208 199 194 196 194 192 194 208 194 189 191 186 183 192 184 194 206 224 228 232 225 225 225 223 218 216 212 218 198 197 208 199 178 183 192 190 184 187 187 189 160 75 58
27 15 21 10 2 357 353 349 353 350 346 353 17 32 30 29 26 20 43 48 48 49 43 44 43 47 46 51 64 56 34 27 28 32 34 35 42 48 70 131 175 222 327 24 27 173 190 187 193 204 198 196 201 183 184 160 165 191 209 228 240 241 240 232 227 224 220 213 214 212 203 196 202 198 178 183 197 148 91 72 92 108 142 158 198
26 8 8 10 0 355 351 350 350 355 348 343 6 28 34 28 23 11 40 46 48 43 47 49 39 45 45 42 49 54 42 22 30 33 35 32 36 44 46 55 64 67 60 92 118 143 167 187 192 209 191 211 199 179 189 165 169 186 202 222 238 251 257 256 247 239 231 227 225 221 193 180 204 212 188 188 184 161 122 122 168 148 145 187 224
16 6 355 2 358 356 351 350 349 356 360 348 349 11 22 32 30 15 31 40 49 44 50 59 51 45 47 48 39 59 48 27 34 35 36 36 35 36 31 49 49 44 27 7 3 42 123 161 173 190 206 234 193 189 186 169 179 186 187 201 234 249 260 261 305 287 265 240 233 229 219 198 193 200 190 187 178 159 159 191 181 157 187 190 209
7 357 345 349 354 359 351 348 353 357 2 356 350 1 14 23 30 26 27 35 41 40 39 48 52 43 38 42 36 42 35 26 31 35 35 34 32 27 25 38 56 34 33 23 358 1 342 287 207 199 205 212 202 201 187 174 185 183 185 176 206 233 242 237 227 250 257 256 260 244 246 213 200 191 196 190 179 180 190 193 158 172 186 197 184
346 346 338 348 351 1 359 352 352 359 0 358 2 359 351 10 29 34 30 28 32 37 40 41 50 47 37 37 39 37 33 26 21 26 31 31 31 33 25 33 25 10 18 24 17 0 335 314 296 262 241 235 227 211 193 184 185 188 166 181 200 234 222 188 209 210 233 223 246 239 240 235 208 202 196 193 190 191 197 189 174 178 184 188 189
352 346 338 350 351 358 9 360 351 350 356 348 355 12 5 7 18 34 37 31 33 33 30 33 42 51 52 44 43 38 33 27 21 22 23 27 29 29 23 23 0 345 333 356 11 335 303 280 276 270 265 263 260 249 217 198 195 183 186 196 201 202 136 165 210 198 212 224 240 260 266 272 204 199 210 200 195 202 208 204 186 186 181 183 188
351 349 352 354 349 351 11 13 354 345 344 349 5 20 9 8 10 24 42 45 40 37 29 23 27 37 47 44 39 35 32 30 24 23 27 28 31 29 27 8 353 315 315 263 272 263 256 266 274 280 281 270 264 263 257 240 216 202 205 205 209 210 203 178 161 158 187 200 212 238 249 242 214 199 204 208 212 211 212 209 203 203 205 195 188
346 357 1 356 348 348 359 17 4 359 354 352 4 22 17 25 23 17 22 43 54 51 38 27 26 22 24 29 25 24 23 23 24 22 24 29 30 29 23 19 11 9 332 299 311 296 286 279 275 285 299 309 311 292 276 264 242 227 229 219 221 220 200 166 158 154 163 183 184 220 227 223 228 220 207 211 212 201 209 212 211 213 206 7 12
349 2 2 354 347 343 359 9 7 2 2 0 5 19 15 11 31 37 23 29 40 58 52 46 48 44 32 21 15 10 12 22 18 21 19 20 23 24 23 19 16 8 8 11 351 340 340 332 318 317 312 306 302 282 261 240 233 247 242 239 226 213 182 174 166 175 170 178 193 207 223 211 214 222 219 218 205 192 168 128 84 64 87 59 38
359 7 358 349 345 347 6 9 5 7 8 10 10 12 13 14 32 32 30 35 36 44 40 42 44 48 44 42 21 1 357 5 6 10 11 13 17 21 22 20 18 16 18 20 10 7 4 3 9 13 20 18 5 358 43 53 31 307 263 255 232 187 193 188 189 174 183 189 195 200 209 212 206 216 214 157 105 99 110 82 74 79 90 97 94
351 4 358 356 354 354 11 13 2 360 6 17 14 16 12 11 20 22 25 30 28 31 31 32 40 43 48 38 22 1 350 355 1 2 0 357 355 2 12 30 24 24 31 19 8 6 6 5 10 10 15 14 19 20 20 356 5 27 39 52 123 171 190 198 197 194 203 196 194 202 207 205 207 186 129 129 149 166 157 149 144 144 153 155 140
342 354 1 1 355 11 11 19 3 356 13 15 15 16 18 19 14 24 20 20 17 17 19 13 20 21 23 18 14 12 14 17 7 358 356 349 345 337 341 346 6 26 30 14 13 6 353 352 347 3 21 40 55 51 40 8 12 10 9 12 17 21 233 201 207 212 215 211 213 212 215 193 126 113 156 166 183 175 173 167 177 178 174 183 182
334 340 352 1 357 13 4 15 9 4 16 10 10 16 21 17 13 27 15 10 5 7 21 15 18 8 4 359 2 7 14 15 10 4 358 357 350 350 339 342 347 351 1 6 9 359 347 335 345 3 3 21 22 25 25 30 35 20 14 8 5 352 343 315 299 265 258 237 237 214 170 133 178 186 169 183 192 180 176 178 180 175 178 165 177
330 341 349 356 9 11 9 3 12 11 11 6 11 19 13 16 15 14 26 16 15 359 15 23 19 11 6 1 2 3 11 14 7 5 358 357 355 352 349 347 339 335 328 334 353 2 25 16 10 3 10 4 1 6 10 10 13 22 22 10 2 354 351 347 300 260 249 236 236 211 208 197 212 193 191 189 191 176 178 191 196 176 179 187 201
337 342 350 342 2 4 6 2 9 13 13 8 0 2 18 17 17 17 10 13 13 15 30 27 19 11 17 13 12 3 0 351 357 5 0 357 354 353 352 348 342 332 323 327 337 29 58 61 44 36 13 9 5 5 4 1 356 355 5 8 2 358 356 346 337 337 334 298 249 224 208 196 209 194 203 207 195 178 182 189 187 174 176 192 207
334 337 349 348 1 2 359 0 3 11 7 7 6 357 350 5 17 17 16 8 3 5 30 27 20 16 22 8 1 3 2 360 1 3 1 356 354 351 349 347 348 345 340 329 259 54 111 97 94 83 88 79 52 24 1 3 357 356 343 348 358 4 353 349 359 350 335 311 292 249 221 201 210 197 206 209 202 193 179 198 186 178 194 197 206
334 335 336 336 351 359 359 358 1 1 2 6 6 6 1 344 352 26 16 4 2 12 33 21 13 7 10 16 10 355 360 0 359 360 359 356 352 349 346 346 357 4 355 4 13 16 26 15 19 35 31 39 94 120 105 64 21 20 336 340 346 13 359 350 339 339 317 314 299 281 242 222 217 210 211 213 199 192 188 188 195 193 199 204 207
330 321 328 337 349 354 359 3 5 3 1 5 1 8 1 7 351 335 3 8 9 7 18 17 9 4 1 7 11 5 358 356 356 356 356 353 350 345 342 343 355 22 23 30 20 15 18 15 7 2 8 357 1 356 342 46 179 172 153 243 298 318 318 300 307 292 292 303 303 292 280 258 238 222 215 202 190 199 194 197 200 200 197 189 151
318 315 327 339 347 354 359 1 358 358 359 2 0 8 3 1 343 339 337 343 1 9 8 8 1 358 355 2 6 359 355 351 351 352 353 348 345 342 340 338 13 48 51 43 30 17 13 10 8 5 352 355 349 349 339 339 343 329 315 250 253 275 292 304 326 316 329 319 311 297 300 281 258 225 213 203 205 205 197 202 189 185 192 185 165
305 312 332 348 344 346 353 349 348 348 344 347 346 1 2 352 349 346 339 344 347 346 344 349 346 345 344 4 358 351 346 343 344 357 1 353 351 342 353 16 16 0 30 38 37 26 18 10 0 358 354 354 345 347 336 333 332 330 324 322 315 315 314 324 321 324 325 320 323 324 323 311 284 265 226 203 194 199 205 194 199 194 185 164 152
314 308 321 338 343 340 342 336 341 331 324 324 345 0 342 334 356 342 345 345 338 332 327 333 314 316 336 13 352 343 338 343 355 19 13 12 10 16 39 14 22 17 27 22 26 15 39 13 14 352 356 344 337 333 325 328 323 329 326 332 322 327 324 322 323 319 315 336 350 337 340 331 329 307 284 253 221 213 202 197 193 185 167 161 158
317 309 302 307 318 320 315 325 319 313 324 333 339 321 327 322 323 328 90 21 284 265 284 305 308 304 248 274 347 334 331 350 17 46 34 30 40 53 66 60 55 30 42 19 10 3 24 24 21 352 351 336 309 303 304 292 310 318 326 353 322 339 319 327 322 319 317 355 11 56 39 14 2 351 305 243 231 206 175 157 150 150 158 150 141
294 293 293 297 310 317 331 315 306 324 313 305 308 295 315 345 16 19 9 358 350 347 350 296 298 306 335 311 341 313 314 309 26 63 27 25 29 34 40 45 47 53 35 18 13 14 359 4 6 1 334 353 321 329 325 311 333 331 330 341 358 322 345 340 338 345 338 342 0 11 80 99 64 51 8 187 180 148 123 132 146 142 130 148 159
300 303 311 324 321 322 321 323 326 331 331 337 335 347 347 353 7 19 12 12 350 343 338 323 335 329 320 324 329 335 11 35 37 24 18 26 40 39 38 40 41 33 29 15 7 9 2 355 351 0 345 354 348 339 342 330 339 331 333 12 348 0 8 358 3 354 357 346 345 356 27 28 62 85 118 121 114 118 117 109 110 132 150 155 137
300 305 310 313 315 311 316 319 324 334 334 340 338 351 353 357 355 353 351 346 336 334 339 343 333 329 322 336 339 1 17 16 25 16 18 18 22 18 27 24 22 15 9 3 2 2 7 352 354 5 354 356 355 349 338 339 330 324 346 358 13 42 25 32 12 13 4 0 4 352 18 11 28 55 68 96 122 123 125 121 113 109 104 102 91
283 285 293 297 299 310 324 326 324 317 324 325 316 330 319 321 327 332 324 298 286 296 304 299 296 302 312 337 360 24 58 17 12 24 26 27 21 21 20 18 13 9 356 357 344 354 2 6 1 7 4 6 1 11 357 0 354 6 359 7 32 46 45 33 25 27 23 30 28 33 28 27 16 64 88 74 81 92 92 101 96 94 98 101 108
298 303 311 308 334 334 332 330 322 328 340 327 319 305 290 295 303 306 299 310 316 322 320 314 304 310 325 345 360 28 72 16 48 29 27 37 28 19 12 359 348 341 336 333 328 345 354 17 8 21 19 11 15 7 20 20 17 18 22 37 46 46 46 29 27 2 17 39 30 28 21 46 53 59 73 77 92 91 94 97 103 108 112 114 114
277 281 282 302 307 302 282 290 322 324 313 309 292 297 299 302 298 302 314 307 296 307 302 308 307 327 332 337 355 21 37 1 64 79 99 79 52 19 354 312 298 284 273 281 290 190 132 98 48 24 34 22 25 30 38 26 28 33 35 44 47 45 44 34 29 15 21 28 35 38 36 32 53 70 74 70 79 86 96 106 105 108 107 113 120
267 269 274 277 283 295 291 291 289 244 262 268 274 281 281 280 296 298 286 283 284 268 251 255 274 300 301 325 357 15 1 2 47 210 197 174 178 242 270 283 302 323 334 342 339 9 73 60 48 27 30 29 19 29 31 26 36 46 43 49 52 49 38 30 23 12 12 46 55 45 41 48 53 60 60 59 80 98 97 97 104 112 118 122 121
258 260 261 268 264 259 274 260 252 270 273 279 280 273 263 228 237 234 223 231 240 235 235 247 265 274 297 316 323 310 284 277 265 211 210 213 210 270 280 328 349 353 355 358 351 15 35 42 46 46 35 21 19 27 26 22 29 40 40 56 60 55 39 30 8 5 7 39 57 67 64 65 63 61 65 59 63 78 82 92 101 105 106 106 114
234 239 242 243 252 248 248 249 233 229 244 247 254 268 259 240 230 229 222 221 213 217 220 216 210 211 214 238 244 231 250 236 240 241 217 238 224 270 270 280 334 22 12 359 5 26 30 40 44 42 37 21 20 22 22 22 25 30 39 48 56 53 40 30 18 28 25 30 34 52 61 67 64 65 70 79 75 78 84 82 82 78 89 91 89
236 233 234 237 236 246 248 251 249 246 243 252 249 252 265 263 250 234 232 232 231 224 237 243 225 228 223 217 220 224 220 203 222 221 222 222 228 246 260 330 36 31 17 18 28 30 31 32 35 41 37 28 29 28 23 23 27 30 36 38 42 41 30 31 35 39 36 34 44 63 62 73 72 70 69 77 84 85 88 84 89 93 87 91 95
234 234 236 238 240 244 253 246 246 251 249 248 246 246 251 254 253 251 252 252 248 248 248 252 252 249 246 258 248 245 244 247 251 256 253 258 260 287 345 24 26 6 18 30 16 25 31 30 30 34 37 31 34 30 25 31 36 46 48 56 58 62 52 52 49 43 37 46 52 67 79 80 76 69 67 75 87 99 98 101 97 94 101 104 100
234 232 237 236 230 234 236 236 231 232 232 233 238 243 242 241 241 242 239 239 240 241 232 240 246 244 239 249 246 246 251 253 266 275 268 267 267 252 224 192 108 64 71 38 12 33 31 36 46 54 57 46 40 38 28 31 36 38 50 50 70 74 71 72 73 64 60 63 64 67 73 76 81 78 79 83 83 82 89 92 98 107 105 104 108
270 254 244 245 242 241 238 237 239 239 241 232 229 241 243 238 247 246 242 242 248 249 243 236 238 236 229 240 236 239 233 238 242 242 243 245 245 237 212 190 198 188 175 180 200 186 134 95 84 82 79 81 79 67 66 54 48 56 59 71 78 71 69 66 64 64 68 73 76 82 87 87 80 77 74 81 86 93 94 97 100 103 110 112 114
288 272 259 246 243 243 239 238 239 238 234 232 230 233 239 237 238 240 238 239 242 247 246 236 236 237 231 228 227 227 229 230 229 226 228 232 233 223 221 219 225 229 235 220 222 210 195 174 158 150 149 135 127 108 93 108 79 107 96 79 75 71 60 52 58 57 64 66 74 82 91 98 100 95 87 83 84 86 95 99 98 100 104 108 116